Location: CNYAC Observatory
(43.2150°N, 74.9500°W)
Time: 23:59:34
(UTC-04:00)

Daily predictions for brighter satellites

Satellite Brightness Start Highest point End
(mag) Time Altitude Azimuth Time Altitude Azimuth Time Altitude Azimuth
Cosmos 2219 4.4 21:09:03 10° SSE 21:13:21 22° E 21:17:40 10° NE
H-2A R/B 2.2 21:12:59 10° SSE 21:17:30 80° ENE 21:22:04 10° NNW
Cosmos 1328 Rocket 3.7 21:15:28 10° N 21:19:57 80° W 21:24:23 10° S
Cosmos 2322 4.2 21:14:45 10° NNW 21:20:20 50° ENE 21:25:52 10° SE
USA 229 DEB 3.8 21:13:35 10° SSW 21:20:24 64° ESE 21:27:19 10° NE
USA 229 3.8 21:13:42 10° SSW 21:20:30 63° ESE 21:27:25 10° NE
Cosmos 2237 Rocket 4.4 21:18:33 10° NNE 21:20:36 12° NE 21:22:40 10° ENE
Terra 4.0 21:19:39 10° ENE 21:21:05 11° ENE 21:22:32 10° NE
Cosmos 1441 Rocket 3.1 21:19:13 10° S 21:22:59 80° E 21:26:46 10° NNE
S3M 4.2 21:18:09 10° N 21:24:16 79° W 21:30:22 10° S
Cosmos 2322 Rocket 2.8 21:19:13 10° NNW 21:24:42 57° WSW 21:30:10 10° S
Cosmos 1726 4.3 21:23:22 10° NE 21:25:21 14° ENE 21:27:19 10° ESE
Cosmos 773 Rocket 4.0 21:21:38 10° NNW 21:26:51 77° ENE 21:32:04 10° SSE
CZ-4 SHROUD 3.6 21:25:08 10° SSE 21:28:09 46° ENE 21:31:11 10° N
Cosmos 2228 Rocket 4.2 21:26:49 10° NNW 21:31:06 47° W 21:35:25 10° SSW
SL-12 R/B (AUX MOTOR) 4.0 21:30:14 10° WSW 21:32:15 77° NNW 21:33:40 10° ENE
SL-16 R/B 3.0 21:29:14 10° NW 21:34:42 50° WSW 21:40:09 10° S
Cosmos 2360 Rocket 2.3 21:29:23 10° NNW 21:35:02 66° ENE 21:40:35 10° SE
Cosmos 1743 Rocket 4.4 21:31:04 10° SSW 21:35:28 55° W 21:39:52 10° N
Cosmos 968 Rocket 4.3 21:35:11 10° SW 21:40:16 56° WNW 21:45:26 10° NNE
ATLAS CENTAUR R/B 3.8 21:37:27 10° WNW 21:40:34 19° WSW 21:43:30 10° SSW
SL-23 DEB 4.2 21:35:00 10° WNW 21:40:37 71° NNE 21:43:59 11° ESE
Cosmos 1500 Rocket 3.9 21:37:29 10° SSW 21:41:50 69° W 21:46:14 10° N
Cosmos 1908 3.2 21:37:57 10° N 21:41:53 89° SW 21:45:47 10° S
deb Chang Zheng 4 4.3 21:42:44 10° N 21:47:00 58° WNW 21:51:15 10° SSW
MetOp-B 4.2 21:45:42 10° SSE 21:51:03 81° ENE 21:56:26 10° NNW
Cosmos 1939 Rocket 3.9 21:49:05 10° S 21:52:49 41° W 21:56:33 10° NNW
DELTA 2 R/B(2) 4.5 21:54:58 10° SW 21:56:33 25° SSE 21:57:18 21° SE
Delta 2 Rocket 4.3 21:54:17 10° SW 21:56:56 20° S 21:57:59 18° SE
Meteor 1-4 Rocket 4.3 21:54:52 10° NNE 21:57:48 21° ENE 21:59:48 14° ESE
Cosmos 1674 3.1 21:55:39 10° SSW 21:59:27 66° W 22:03:18 10° N
Envisat 3.7 21:54:48 10° S 21:59:44 53° W 22:04:44 10° NNW
SPOT 5 3.1 21:55:44 10° S 22:00:13 64° W 22:04:59 10° NNW
Cosmos 2227 Rocket 3.9 22:00:43 13° ESE 22:02:18 14° E 22:05:07 10° ENE
ATLAS 2AS CENTAUR R/B 4.3 22:00:49 13° SE 22:03:26 16° ESE 22:07:45 10° ENE
SL-08 RB Rocket 4.0 22:02:37 17° SE 22:05:56 52° ENE 22:10:18 10° N
Cosmos 1626 4.5 22:06:00 10° E 22:06:07 10° E 22:06:14 10° E
Cosmos 1833 4.4 22:01:01 10° SSW 22:06:43 76° WNW 22:12:26 10° NNE
Cosmos 1437 Rocket 4.3 22:05:05 10° NNW 22:08:30 32° W 22:11:56 10° SSW
Cosmos 1300 2.9 22:04:45 10° N 22:08:33 54° E 22:11:00 20° SSE
Cosmos 2112 Rocket 4.0 22:03:18 10° NNW 22:08:35 88° WSW 22:12:50 16° SSE
Cosmos 2333 Rocket 3.6 22:03:57 10° N 22:08:48 27° NE 22:13:11 12° ESE
USA 245 2.1 22:10:34 23° SSE 22:12:01 90° ENE 22:14:24 10° NNW
SL-16 R/B 4.4 22:09:54 10° NNE 22:12:37 13° NE 22:15:20 10° ENE
Cosmos 1437 3.2 22:09:27 10° SSW 22:12:42 64° WNW 22:15:59 10° N
Cosmos 2298 Rocket 4.4 22:07:58 11° S 22:12:43 44° ESE 22:17:45 10° NNE
DELTA 2 R/B (1) 4.0 22:07:29 10° W 22:12:45 45° SSW 22:16:24 19° SE
CARTOSAT-1 4.4 22:17:10 20° SE 22:19:35 36° ENE 22:23:34 10° N
Cosmos 2315 Rocket 4.1 22:13:43 10° N 22:19:57 81° W 22:25:34 13° S
COSMOS 2428 2.7 22:15:07 10° NNW 22:20:50 75° ENE 22:24:46 21° SSE
Cosmos 1937 Rocket 4.3 22:18:23 20° SSE 22:21:09 32° E 22:25:44 10° NE
ATLAS 3B R/B 4.4 22:15:55 10° NNW 22:21:47 26° NNE 22:27:21 10° E
Sich 1 3.2 22:20:01 19° SSE 22:23:00 55° E 22:27:19 10° NNE
Cosmos 1633 Rocket 3.3 22:21:04 20° SSE 22:23:53 52° E 22:28:09 10° NNE
Cosmos 2151 3.7 22:20:02 10° SSW 22:24:06 51° WNW 22:28:13 10° N
YAOGAN 6 3.5 22:23:27 14° S 22:26:21 45° W 22:29:50 10° NNW
NOSS 3-1 (C) 3.4 22:22:00 10° SSW 22:27:46 63° ESE 22:34:10 10° NE
Cosmos 2297 Rocket 3.7 22:28:39 16° ESE 22:29:38 17° E 22:33:05 10° ENE
CZ-4C R/B 3.0 22:29:16 29° SSE 22:30:53 68° ENE 22:34:21 10° N
Cosmos 1455 3.7 22:28:13 10° NNE 22:31:19 23° ENE 22:32:31 20° ESE
H-2A R/B 2.4 22:29:35 22° SE 22:32:56 59° ENE 22:38:17 10° N
Cosmos 2219 Rocket 2.6 22:31:56 10° NNW 22:37:25 52° ENE 22:40:42 23° SE
Cosmos 1805 Rocket 3.9 22:33:35 11° SSW 22:37:53 65° W 22:42:20 10° N
Lacrosse 4 Rocket 4.0 22:37:43 10° NNE 22:39:47 13° NE 22:41:50 10° ENE
ARGOS 3.5 22:37:03 17° S 22:41:09 63° WSW 22:46:32 10° NNW
Landsat 7 3.8 22:39:24 25° SSE 22:42:12 87° ENE 22:47:00 10° NNW
Cosmos 2237 4.4 22:36:44 10° NNW 22:42:28 71° WSW 22:46:02 24° S
SPOT 1/Viking Rocket 4.3 22:41:06 15° S 22:45:11 46° W 22:50:10 10° NNW
Nadezhda 1 Rocket 4.1 22:43:13 10° N 22:49:15 60° E 22:52:38 27° SSE
Cosmos 2058 4.0 22:46:09 10° SSW 22:50:03 42° WNW 22:53:58 10° N
Cosmos 292 Rocket 3.7 22:46:40 10° NNW 22:51:27 77° ENE 22:53:38 32° SSE
Cosmos 1980 4.2 22:47:14 10° NNW 22:52:44 50° ENE 22:55:44 26° ESE
Spot 4 4.0 22:52:29 30° SE 22:54:45 65° ENE 22:59:35 10° N
Cosmos 1707 Rocket 4.5 22:51:08 10° NNW 22:55:16 43° W 22:58:04 19° SSW
Cosmos 2219 3.9 22:51:24 10° SW 22:57:02 57° WNW 23:02:43 10° NNE
Terra 1.8 22:55:46 31° SSE 22:58:04 88° ENE 23:02:51 10° NNW
SAR-Lupe-2 3.5 22:57:19 45° SSE 22:58:19 77° ENE 23:01:54 10° N
COSMOS 2455 4.2 22:53:10 10° NNW 22:58:29 31° NE 23:02:41 15° ESE
SL-14 R/B 4.1 22:56:58 17° SSW 22:59:48 48° WNW 23:03:42 10° N
Cosmos 1666 Rocket 4.3 22:56:36 14° SSW 23:00:07 50° W 23:04:27 10° N
Cosmos 1703 3.2 22:58:43 34° S 23:00:23 88° WNW 23:04:18 10° N
Cosmos 1898 Rocket 3.5 22:56:17 14° SSW 23:00:47 82° WNW 23:06:02 10° NNE
Cosmos 1726 3.1 22:57:22 10° NNW 23:00:57 41° W 23:02:46 24° SSW
Cosmos 1745 Rocket 3.9 22:57:28 22° S 23:01:41 82° E 23:07:54 10° N
Cosmos 1271 Rocket 2.8 22:58:03 10° NNW 23:01:53 69° W 23:03:14 37° S
Cosmos 2150 Rocket 4.2 22:57:11 12° SSW 23:02:14 79° WNW 23:07:45 10° NNE
Cosmos 2333 4.4 22:56:59 10° NNW 23:02:39 66° WSW 23:05:40 28° S
Spot 2 4.4 22:59:58 10° NNE 23:05:06 69° ESE 23:07:27 31° S
Cosmos 2237 Rocket 2.5 23:00:18 10° NNW 23:05:58 59° ENE 23:08:42 30° SE
Cosmos 1346 3.3 23:07:04 54° E 23:07:04 54° E 23:09:52 10° NNE
Cosmos 2082 4.0 23:07:20 31° SSE 23:09:40 50° ESE 23:15:12 10° NE
Cosmos 1709 Rocket 4.5 23:07:48 29° SE 23:10:15 43° E 23:15:58 10° NNE
DMSP B5D2-2 4.0 23:06:51 10° NNE 23:12:07 89° W 23:15:08 26° SSW
Cosmos 1470 Rocket 3.4 23:11:47 37° S 23:13:27 89° ESE 23:17:48 10° N
Cosmos 220 Rocket 4.0 23:12:13 31° SSW 23:14:18 89° WNW 23:18:46 10° NNE
Cosmos 1933 Rocket 3.5 23:13:06 37° S 23:14:52 89° ESE 23:19:22 10° N
IGS 5A 3.7 23:14:41 38° SSW 23:16:08 63° W 23:20:16 10° NNW
Iridium 2 4.2 23:14:54 32° SSW 23:16:24 56° W 23:20:13 10° N
SeaSat 1 3.2 23:15:33 26° ESE 23:17:50 42° NE 23:22:29 10° NNW
Cosmos 2360 Rocket 4.3 23:14:42 10° WNW 23:18:26 18° W 23:22:09 10° SW
Cosmos 1933 4.1 23:18:08 10° N 23:21:56 37° ENE 23:22:33 35° E
NOSS 3-1 (A) 3.8 23:24:46 10° SW 23:30:40 67° NW 23:37:17 10° NNE
NOSS 0 Rocket 4.0 23:24:35 10° NNW 23:30:44 71° WSW 23:33:20 36° S
Cosmos 1386 Rocket 4.4 23:27:31 28° SSW 23:30:49 81° W 23:36:52 10° N
Cosmos 2181 Rocket 4.3 23:24:44 10° N 23:31:02 59° E 23:33:42 35° SE
Meteor 1-4 Rocket 4.3 23:29:50 10° NW 23:32:59 25° W 23:34:10 21° WSW
Cosmos 192 4.2 23:33:46 10° NNW 23:38:42 89° ENE 23:40:02 49° SSE
CZ-4C R/B 4.4 23:40:38 27° ENE 23:40:45 27° ENE 23:43:46 10° N
Cosmos 1626 2.7 23:40:11 43° SW 23:41:00 53° W 23:44:42 10° N
Cosmos 2227 Rocket 2.2 23:42:29 28° SSW 23:45:33 83° WNW 23:51:16 10° NNE
Cosmos 468 4.5 23:41:00 10° NNW 23:46:22 84° ENE 23:47:58 47° SSE
ERBS 3.5 23:51:23 34° ENE 23:51:23 34° ENE 23:53:32 10° NE
IKONOS-2 4.4 23:50:00 63° SSE 23:50:40 85° ENE 23:55:00 10° NNW
Cosmos 2333 Rocket 2.6 23:47:47 10° NW 23:53:22 53° WSW 23:55:11 38° SSW
